Vertical_Velocity
-6 -5 -4 -5 -4 -4 -5 -2 -5 0 -1 -3 -4 -4 -2 5 10 2 8 0 8 -0 -0 2 -0 -0 8 6 6 7 -7 -1 14 -0 0 4 -3 4 9 1 -2 -2 -4 -5 -1
-6 -5 -5 -5 -3 -2 -4 -4 -4 -2 -1 -1 3 0 -4 -7 -3 2 -12 3 4 2 -2 7 3 -5 -2 -1 -4 -1 3 0 9 3 3 -2 1 0 -2 3 6 3 -1 -3 1
-5 -5 -5 -5 -1 -2 -5 -3 -4 -2 1 -5 -3 -1 -1 -2 1 -9 -2 -4 -3 2 -0 -5 0 -2 -2 -3 1 -0 7 2 4 -7 2 4 -0 2 8 5 5 -1 -2 -2 1
-5 -3 -4 -4 -3 -3 -5 -3 -2 -3 -2 2 -0 1 -1 -2 -3 -4 0 -1 1 -0 1 1 1 -4 1 0 -4 -7 1 -2 -8 -1 4 11 0 -2 -1 3 -1 7 -5 -1 4
-2 -5 -4 -2 -2 -0 -3 -5 -2 -2 -0 -0 -2 -6 -3 -3 -1 -1 -4 -3 -2 -2 4 6 2 0 3 10 -5 -9 4 -3 -2 -2 0 -3 1 -3 -4 2 1 3 -4 -2 1
-4 -3 -5 -6 -3 -2 0 -3 -4 -3 -3 -4 -5 -4 -2 -2 4 -1 1 -1 -1 -2 -1 -3 8 9 2 -2 -12 2 2 1 -1 4 1 -4 -1 -5 3 2 0 1 0 1 -5
-3 -3 -4 -3 -4 -3 -1 -1 -4 -3 -2 -2 -3 -3 -3 -2 -1 -1 -3 -2 -0 -3 2 1 2 0 -4 -14 -2 1 3 5 1 -1 2 -2 -5 4 -1 4 -0 -3 1 -4 -3
-3 -5 -4 -5 -6 -5 -3 -1 -3 -4 -3 -2 1 -2 -3 -5 -4 1 -1 -2 -1 1 -2 1 0 -1 -7 4 -2 3 5 1 -0 -4 -8 -1 13 -8 -4 3 -2 -3 -3 -3 3
-3 -2 -2 -4 -3 -3 -2 -3 -2 -3 -3 -1 -0 -1 -1 -6 -5 -0 1 0 0 0 1 -7 -2 -4 -6 0 -2 -3 -2 -1 -5 -4 -4 -0 6 -6 -2 3 2 -2 2 -1 -1
-4 -3 -3 -2 -4 -4 -4 -1 -0 -2 -2 -2 -2 -2 2 -0 -1 -3 0 2 -1 -1 -3 -3 1 -8 -4 -2 -4 10 14 10 11 18 5 -7 8 -5 -2 -4 4 2 -4 3 -3
-2 -4 -4 -2 -3 -3 -3 -4 -1 -3 -3 -6 -3 -1 -2 -3 1 1 -3 -6 -1 0 1 2 -7 0 9 12 9 0 -6 -5 -12 1 -10 -3 -1 1 1 -1 1 -3 -4 4 -1
-3 -2 -4 -4 -3 -6 -3 -3 -2 -0 -4 -0 -3 -3 -2 2 -3 1 1 -3 -2 4 -4 -4 -3 5 4 -1 2 1 2 -10 -3 -8 -8 -10 2 -5 -0 2 -2 -5 -4 -5 1
-3 -1 -1 -2 -1 -1 -2 -4 -5 -4 1 -3 0 -1 1 -3 1 -2 -1 -4 -1 -5 3 -1 14 -3 0 1 -3 2 -5 0 5 -5 -4 0 -2 5 -0 -3 -6 -4 -1 7 4
-1 -3 -2 -2 -7 -4 -4 -4 -3 -1 1 -1 -2 -5 2 -4 -1 -0 2 -4 -1 3 -6 -8 3 -2 -1 -3 0 -7 14 -1 -6 1 -2 -5 -10 -5 1 -3 2 1 7 5 -1
-2 -2 -1 -3 -1 -0 -0 -4 -4 -4 -7 -3 -0 3 0 -2 6 -2 -1 -2 3 8 -8 10 6 7 -6 12 -2 10 4 -1 -1 2 -6 -5 -18 8 4 4 6 5 6 -3 -3
-2 -0 -2 -1 -0 -2 -3 -4 -5 -4 -9 -6 -6 -4 -2 1 -2 5 -1 -2 7 -4 -5 6 1 -7 6 4 -1 9 1 5 0 -1 -23 13 -8 2 3 15 -1 -5 -1 -3 -4
-2 -1 -4 -0 -1 -0 -1 -1 -4 -3 -4 -2 -7 -2 -2 -3 -0 1 -1 -0 -1 -0 3 8 6 -2 -1 -2 6 -5 4 3 4 -11 -6 6 -23 25 8 3 6 1 -5 -2 -3
-1 -1 -2 0 -0 0 -0 0 -2 -6 -2 -5 0 -5 -3 -3 -1 2 1 -4 0 -0 1 -1 -4 12 25 1 13 8 12 -7 -7 -7 18 13 -59 1 10 3 2 1 -1 4 1
1 -2 -2 1 1 -0 -1 3 -1 1 1 -2 -2 -5 -0 2 -4 -2 -0 1 -0 4 -2 -6 -21 17 -5 11 11 10 -37 43 0 3 -8 -14 -9 -0 -1 4 1 -1 0 -2 1
-1 4 -3 -2 1 0 -0 -3 -1 4 -1 1 4 -4 -3 -1 1 -5 1 2 -1 0 5 -4 -13 4 4 18 2 -14 26 2 1 -16 -11 -11 -10 0 7 -0 1 3 2 3 1
-1 1 -1 -0 -1 2 1 3 -1 1 2 -2 -1 2 -1 -3 -2 1 -2 1 1 -1 4 24 16 -3 13 -15 6 9 2 -2 9 -17 -6 4 -23 8 -2 -3 1 -1 3 2 0
0 2 -1 2 3 1 -0 -2 -1 -5 -4 -0 1 -2 1 1 1 -2 2 0 0 2 -3 -0 1 6 4 9 4 -1 -1 14 -2 4 -6 7 -24 -4 4 2 -1 2 4 2 1
-2 5 1 -1 -0 -2 3 5 1 0 -3 0 -3 1 5 2 -7 1 -1 5 1 1 -3 -2 -1 3 5 10 0 3 11 16 7 -1 -18 -1 10 14 1 -2 3 -1 1 1 2
-0 2 3 1 -2 -0 -1 3 -3 2 7 -2 1 -3 0 6 0 -0 6 -5 3 0 -3 3 2 3 -13 11 16 22 11 13 20 30 12 -36 18 2 9 2 2 1 4 -1 2
-1 0 1 4 3 3 -2 3 3 -5 2 5 6 -2 -2 -3 3 -2 1 1 4 5 3 -1 0 3 5 -3 4 6 8 8 -4 5 10 39 -20 0 4 4 -1 0 2 -4 3
3 5 5 5 5 3 -0 7 3 6 -5 1 -4 5 -1 -7 -1 5 3 2 1 4 1 1 -6 -3 0 -1 -4 -6 5 8 6 3 -11 8 -5 8 -1 -7 -1 1 2 5 5
-2 5 -2 6 6 4 4 3 6 6 7 -2 -4 -3 -4 0 -1 -3 -3 4 -1 -1 2 1 -1 1 -12 5 2 -24 10 2 10 9 4 -5 23 1 2 -2 3 4 3 3 2
Height
5721 5709 5695 5682 5671 5666 5659 5653 5648 5645 5644 5644 5644 5643 5645 5644 5650 5658 5663 5666 5671 5676 5681 5686 5691 5695 5703 5711 5715 5721 5727 5735 5740 5742 5747 5753 5757 5759 5764 5768 5772 5775 5781 5784 5786
5719 5707 5694 5681 5671 5665 5660 5654 5650 5647 5645 5644 5644 5643 5645 5647 5650 5654 5658 5662 5667 5672 5678 5683 5687 5692 5695 5701 5708 5715 5723 5727 5733 5736 5742 5746 5750 5753 5757 5763 5767 5771 5776 5779 5781
5716 5705 5694 5681 5673 5666 5661 5656 5651 5648 5646 5645 5645 5646 5647 5646 5650 5651 5655 5659 5663 5669 5673 5679 5685 5687 5691 5695 5701 5707 5714 5720 5724 5729 5735 5741 5744 5749 5752 5756 5760 5764 5767 5773 5777
5715 5705 5694 5684 5674 5666 5661 5657 5654 5650 5647 5646 5646 5645 5646 5646 5649 5650 5653 5656 5660 5665 5670 5676 5682 5686 5690 5695 5698 5702 5707 5711 5717 5724 5730 5735 5739 5742 5744 5748 5752 5756 5761 5766 5771
5714 5705 5694 5684 5675 5667 5662 5658 5655 5653 5651 5649 5649 5649 5647 5646 5648 5649 5651 5654 5657 5663 5669 5673 5679 5683 5687 5690 5694 5701 5706 5709 5711 5716 5721 5726 5730 5733 5737 5742 5746 5749 5754 5760 5764
5714 5704 5695 5685 5675 5668 5662 5659 5656 5655 5652 5651 5649 5647 5647 5646 5647 5648 5650 5653 5657 5660 5665 5671 5676 5679 5681 5685 5692 5695 5697 5702 5707 5711 5714 5720 5724 5727 5733 5736 5740 5743 5747 5752 5758
5714 5704 5695 5687 5677 5669 5663 5659 5657 5655 5653 5652 5651 5648 5646 5647 5647 5648 5649 5653 5656 5659 5663 5669 5672 5674 5676 5681 5686 5689 5694 5698 5702 5705 5708 5712 5716 5722 5727 5730 5735 5739 5742 5746 5751
5713 5705 5696 5687 5679 5671 5664 5660 5656 5654 5653 5651 5649 5648 5648 5647 5647 5648 5649 5651 5654 5657 5660 5664 5668 5671 5673 5677 5680 5682 5686 5693 5695 5700 5704 5707 5711 5716 5720 5723 5728 5732 5736 5739 5744
5712 5704 5696 5688 5680 5673 5666 5661 5656 5654 5652 5650 5648 5646 5647 5646 5646 5646 5647 5649 5651 5654 5657 5659 5663 5666 5669 5671 5674 5678 5682 5687 5692 5695 5698 5700 5704 5709 5713 5716 5720 5724 5728 5732 5737
5710 5702 5694 5687 5681 5674 5667 5661 5656 5653 5650 5648 5647 5648 5645 5645 5645 5645 5645 5646 5648 5650 5652 5654 5658 5661 5664 5667 5671 5675 5681 5682 5687 5689 5688 5690 5692 5699 5705 5709 5712 5716 5721 5725 5730
5709 5701 5694 5687 5679 5674 5668 5662 5659 5653 5648 5647 5645 5643 5643 5642 5642 5643 5643 5643 5644 5646 5649 5651 5653 5654 5659 5665 5669 5670 5672 5674 5677 5681 5682 5685 5687 5692 5695 5698 5703 5706 5712 5717 5721
5708 5701 5693 5686 5680 5673 5668 5661 5657 5652 5646 5643 5641 5641 5640 5639 5640 5639 5640 5641 5641 5642 5642 5644 5645 5650 5655 5657 5662 5665 5667 5669 5670 5672 5676 5680 5683 5684 5686 5690 5694 5697 5702 5706 5710
5705 5698 5691 5683 5678 5672 5666 5660 5654 5650 5645 5640 5638 5637 5636 5636 5635 5635 5636 5635 5637 5636 5637 5639 5646 5646 5648 5651 5654 5658 5660 5663 5665 5666 5668 5671 5670 5672 5676 5679 5683 5689 5693 5697 5701
5702 5695 5688 5681 5675 5669 5663 5658 5653 5647 5643 5640 5635 5633 5633 5632 5632 5631 5630 5632 5632 5633 5633 5633 5637 5636 5639 5641 5646 5649 5655 5655 5657 5659 5659 5661 5660 5663 5669 5671 5674 5678 5682 5686 5690
5697 5691 5684 5677 5671 5665 5660 5654 5649 5645 5641 5638 5633 5630 5627 5629 5628 5626 5625 5625 5626 5626 5627 5628 5630 5631 5632 5637 5640 5644 5648 5647 5648 5648 5646 5649 5650 5652 5659 5664 5667 5670 5676 5679 5683
5693 5686 5680 5674 5667 5662 5655 5649 5645 5642 5635 5632 5628 5625 5623 5621 5622 5621 5619 5619 5618 5619 5618 5621 5622 5623 5626 5630 5632 5636 5638 5639 5638 5636 5633 5640 5643 5643 5650 5659 5662 5661 5665 5670 5674
5688 5682 5675 5668 5663 5656 5650 5645 5641 5635 5631 5627 5621 5618 5616 5614 5613 5614 5613 5612 5612 5612 5613 5612 5615 5616 5618 5621 5625 5624 5628 5629 5628 5625 5623 5633 5633 5635 5644 5649 5652 5654 5657 5661 5665
5680 5675 5668 5663 5656 5649 5644 5638 5634 5627 5623 5620 5614 5610 5608 5606 5607 5605 5604 5605 5605 5605 5603 5602 5604 5608 5612 5612 5617 5617 5619 5620 5618 5618 5623 5626 5623 5626 5635 5638 5642 5644 5647 5650 5654
5673 5666 5659 5654 5648 5642 5637 5631 5626 5622 5617 5613 5608 5603 5601 5599 5595 5595 5594 5596 5596 5596 5596 5593 5595 5599 5601 5605 5605 5607 5604 5613 5612 5612 5610 5612 5615 5618 5623 5629 5634 5636 5638 5641 5644
5663 5657 5649 5643 5638 5633 5629 5623 5617 5614 5608 5604 5600 5596 5592 5589 5588 5586 5585 5586 5587 5587 5587 5586 5582 5588 5592 5592 5592 5594 5601 5600 5599 5598 5598 5599 5603 5607 5616 5622 5626 5629 5630 5632 5635
5653 5648 5640 5634 5628 5624 5619 5614 5608 5604 5601 5596 5591 5586 5583 5579 5576 5575 5573 5577 5575 5577 5578 5577 5575 5578 5577 5579 5585 5586 5586 5586 5589 5589 5589 5591 5592 5602 5605 5610 5615 5619 5622 5624 5626
5640 5635 5628 5623 5618 5612 5608 5603 5598 5592 5589 5586 5582 5575 5572 5569 5563 5562 5562 5561 5563 5564 5565 5565 5561 5562 5564 5568 5570 5573 5574 5576 5575 5579 5580 5583 5582 5591 5596 5601 5606 5610 5614 5616 5617
5627 5622 5615 5610 5606 5600 5595 5592 5587 5582 5576 5573 5569 5564 5560 5557 5552 5550 5550 5550 5549 5551 5549 5552 5549 5548 5550 5555 5558 5561 5564 5566 5567 5566 5567 5570 5572 5584 5588 5591 5596 5601 5605 5608 5610
5613 5609 5603 5596 5591 5586 5582 5578 5572 5569 5565 5560 5556 5552 5547 5544 5541 5535 5536 5533 5533 5536 5536 5537 5535 5535 5536 5543 5543 5543 5546 5551 5553 5554 5559 5559 5565 5571 5578 5582 5586 5590 5595 5599 5603
5599 5594 5588 5584 5576 5571 5566 5564 5557 5553 5551 5548 5544 5539 5535 5530 5527 5525 5522 5519 5519 5520 5520 5519 5516 5521 5521 5526 5526 5526 5530 5533 5537 5542 5543 5552 5553 5560 5565 5570 5575 5580 5585 5589 5593
5583 5579 5572 5567 5561 5555 5551 5550 5545 5540 5536 5533 5529 5526 5521 5515 5512 5510 5508 5505 5503 5502 5503 5503 5501 5503 5505 5510 5508 5508 5514 5519 5522 5527 5532 5536 5542 5548 5553 5557 5563 5569 5574 5579 5583
5565 5564 5558 5553 5547 5542 5540 5535 5532 5528 5523 5519 5515 5512 5507 5502 5497 5492 5487 5487 5485 5484 5487 5485 5488 5488 5483 5494 5491 5489 5504 5507 5510 5514 5519 5524 5531 5536 5543 5548 5554 5559 5564 5568 5572